Lancaster, OH

7:49 PM EDT on April 26, 2018 (GMT -0400)
Fairfield County

Weather History for KLHQ - January, 2013

Change the Weather History Date:

Tuesday, January 8, 2013

  Actual Average Record
Temperature  
Mean Temperature 32 °F -  
Max Temperature 46 °F 32 °F 69 °F (1937)
Min Temperature 18 °F 14 °F -18 °F (1942)
Degree Days  
Heating Degree Days 33    
Moisture  
Dew Point 24 °F    
Average Humidity 76    
Maximum Humidity 89    
Minimum Humidity 56    
Precipitation  
Precipitation 0.00 in - - ()
Sea Level Pressure  
Sea Level Pressure 30.31 in    
Wind  
Wind Speed 3 mph (South)    
Max Wind Speed 9 mph    
Max Gust Speed -    
Visibility 8 miles    
Events      
Averages and records for this station are not official NWS values.
T = Trace of Precipitation, MM = Missing Value Source: NWS Daily Summary

Daily Weather History Graph

Daily Weather History Graph

Search for Another Location

Airport or City:

Astronomy

Jan. 08, 2013 Rise Set
Actual Time 7:51 AM EST 5:23 PM EST
Civil Twilight 7:21 AM EST 5:53 PM EST
Nautical Twilight 6:48 AM EST 6:27 PM EST
Astronomical Twilight 6:15 AM EST 6:59 PM EST
Moon 4:23 AM EST (1/8) 2:24 PM EST (1/8)
Length of Visible Light 10h 31m
Length of Day
9h 31m
Waning Crescent, 14% of the Moon is Illuminated
Jan 8
Waning Crescent
Jan 11
New
Jan 18
First Quarter
Jan 26
Full
Feb 3
Last Quarter

Hourly Weather History & Observations

Time (EST) Temp. Windchill Dew Point Humidity Pressure Visibility Wind Dir Wind Speed Gust Speed Precip Events Conditions
12:53 AM 19.9 °F - 15.1 °F 81% 30.30 in 4.0 mi Calm Calm - N/A   Haze
1:53 AM 21.9 °F 14.5 °F 18.0 °F 85% 30.27 in 5.0 mi SSE 5.8 mph - N/A   Clear
2:53 AM 19.9 °F - 17.1 °F 89% 30.27 in 4.0 mi Calm Calm - N/A   Clear
3:53 AM 19.9 °F - 16.0 °F 85% 30.29 in 4.0 mi Calm Calm - N/A   Clear
4:53 AM 19.0 °F - 16.0 °F 88% 30.30 in 4.0 mi Calm Calm - N/A   Clear
5:53 AM 18.0 °F 12.7 °F 15.1 °F 88% 30.31 in 4.0 mi SSW 3.5 mph - N/A   Clear
7:53 AM 19.9 °F 13.4 °F 17.1 °F 89% 30.34 in 3.0 mi South 4.6 mph - N/A   Clear
9:53 AM 33.1 °F 27.7 °F 26.1 °F 75% 30.36 in 7.0 mi SSE 5.8 mph - N/A   Clear
10:53 AM 39.9 °F 33.9 °F 27.0 °F 60% 30.35 in 10.0 mi SW 9.2 mph - N/A   Clear
11:53 AM 42.1 °F 37.1 °F 28.9 °F 60% 30.35 in 10.0 mi SW 8.1 mph - N/A   Clear
12:53 PM 44.1 °F 40.8 °F 30.0 °F 58% 30.32 in 10.0 mi SW 5.8 mph - N/A   Clear
1:53 PM 45.0 °F 41.8 °F 30.0 °F 56% 30.31 in 10.0 mi SW 5.8 mph - N/A   Clear
2:53 PM 46.0 °F 43.1 °F 30.9 °F 56% 30.31 in 10.0 mi SW 5.8 mph - N/A   Clear
3:53 PM 46.9 °F - 32.0 °F 56% 30.32 in 10.0 mi SSE 4.6 mph - N/A   Clear
4:53 PM 45.0 °F 42.6 °F 30.9 °F 58% 30.32 in 10.0 mi South 4.6 mph - N/A   Clear
5:53 PM 37.9 °F - 28.9 °F 70% 30.32 in 10.0 mi Calm Calm - N/A   Clear
6:53 PM 32.0 °F - 28.0 °F 85% 30.32 in 10.0 mi Calm Calm - N/A   Clear
7:53 PM 30.9 °F - 27.0 °F 85% 30.33 in 9.0 mi Calm Calm - N/A   Clear
8:53 PM 28.0 °F - 25.0 °F 88% 30.32 in 9.0 mi Calm Calm - N/A   Clear
9:53 PM 28.0 °F 24.2 °F 24.1 °F 85% 30.30 in 8.0 mi South 3.5 mph - N/A   Clear
10:53 PM 30.0 °F 25.2 °F 26.1 °F 85% 30.30 in 9.0 mi South 4.6 mph - N/A   Clear
11:53 PM 28.9 °F 22.8 °F 24.1 °F 82% 30.28 in 8.0 mi South 5.8 mph - N/A   Clear